Southeast Shoal, Ontario

1:43 PM EST on February 26, 2017 (GMT -0500)
Southeast Shoal

Weather History for CWNB - December, 2012

Change the Weather History Date:

Monday, December 10, 2012

  Actual Average Record
Temperature  
Mean Temperature 42 °F -  
Max Temperature 49 °F - - ()
Min Temperature 34 °F - - ()
Degree Days  
Heating Degree Days 24    
Moisture  
Dew Point 37 °F    
Average Humidity 87    
Maximum Humidity 100    
Minimum Humidity 73    
Precipitation  
Precipitation 0.00 in - - ()
Sea Level Pressure  
Sea Level Pressure 29.67 in    
Wind  
Wind Speed - ()    
Max Wind Speed -    
Max Gust Speed -    
T = Trace of Precipitation, MM = Missing Value Source: Averaged Metar Reports

Daily Weather History Graph

Daily Weather History Graph

Search for Another Location

Airport or City:

Trip Planner

Search our weather history database for the weather conditions in past years. The results will help you decide how hot, cold, wet, or windy it might be!

Date:

Astronomy

Dec. 10, 2012 Rise Set
Actual Time 7:46 AM EST 4:58 PM EST
Civil Twilight 7:15 AM EST 5:30 PM EST
Nautical Twilight 6:40 AM EST 6:05 PM EST
Astronomical Twilight 6:06 AM EST 6:39 PM EST
Moon 4:27 AM EST (12/10) 2:48 PM EST (12/10)
Length of Visible Light 10h 15m
Length of Day
9h 12m
Waning Crescent, 10% of the Moon is Illuminated
Dec 10
Waning Crescent
Dec 13
New
Dec 20
First Quarter
Dec 28
Full
Jan 4
Last Quarter

Hourly Weather History & Observations

Time (EST) Temp. Dew Point Humidity Pressure Visibility Wind Dir Wind Speed Gust Speed Precip Events Conditions
12:00 AM 48.4 °F 48.0 °F 99% 29.63 in - North - - N/A   Unknown
1:00 AM 49 °F 49 °F 99% 29.61 in - Calm Calm - -  
2:00 AM 47.7 °F 47.3 °F 99% 29.59 in - North - - N/A   Unknown
3:00 AM 43.7 °F 43.5 °F 99% 29.60 in - North - - N/A   Unknown
4:00 AM 42.3 °F 42.3 °F 100% 29.60 in - North - - N/A   Unknown
5:00 AM 41.9 °F 41.9 °F 100% 29.60 in - North - - N/A   Unknown
6:00 AM 41.9 °F 41.7 °F 99% 29.61 in - North - - N/A   Unknown
7:00 AM 42 °F 40 °F 88% 29.62 in - Calm Calm - -  
7:00 AM 42.1 °F 39.7 °F 91% 29.62 in - North - - N/A   Unknown
8:00 AM 41.9 °F 40.6 °F 95% 29.64 in - North - - N/A   Unknown
9:00 AM 41.5 °F 38.8 °F 90% 29.65 in - North - - N/A   Unknown
10:00 AM 40.8 °F 38.1 °F 90% 29.66 in - North - - N/A   Unknown
11:00 AM 40.6 °F 36.5 °F 85% 29.64 in - North - - N/A   Unknown
12:00 PM 40.5 °F 36.9 °F 87% 29.64 in - North - - N/A   Unknown
1:00 PM 40 °F 37 °F 84% 29.64 in - Calm Calm - -  
1:00 PM 40.3 °F 36.9 °F 88% 29.64 in - North - - N/A   Unknown
2:00 PM 40.6 °F 34.7 °F 79% 29.64 in - North - - N/A   Unknown
3:00 PM 40.8 °F 34.9 °F 79% 29.65 in - North - - N/A   Unknown
4:00 PM 40.6 °F 33.4 °F 75% 29.67 in - North - - N/A   Unknown
5:00 PM 39.7 °F 35.2 °F 84% 29.70 in - North - - N/A   Unknown
6:00 PM 36.9 °F 31.8 °F 82% 29.72 in - North - - N/A   Unknown
7:00 PM 36 °F 30 °F 73% 29.75 in - Calm Calm - -  
7:00 PM 36.0 °F 30.4 °F 80% 29.75 in - North - - N/A   Unknown
8:00 PM 35.6 °F 28.8 °F 76% 29.78 in - North - - N/A   Unknown
9:00 PM 34.7 °F 27.0 °F 73% 29.80 in - North - - N/A   Unknown
10:00 PM 34.7 °F 26.8 °F 73% 29.82 in - North - - N/A   Unknown
11:00 PM 34.7 °F 27.1 °F 74% 29.84 in - North - - N/A   Unknown